Regional Weather Roundup
Issued by NWS

Home | Current Version | Previous Version | Graphics & Text | Print | Product List | Glossary On
Versions: 1 2 3 4 5 6 7 8 9 10 11 12 13 14 15 16 17 18 19 20 21 22 23 24 25 26 27 28 29 30 31 32 33 34 35 36 37 38 39 40 41 42 43 44 45 46 47 48 49 50
000
ASUS43 KFSD 291510
RWRSD

WEATHER ROUNDUP FOR SOUTH DAKOTA
NATIONAL WEATHER SERVICE SIOUX FALLS SD
1000 AM CDT FRI MAY 29 2015

NOTE: "FAIR" INDICATES FEW OR NO CLOUDS BELOW 12,000 FEET WITH NO
SIGNIFICANT WEATHER AND/OR OBSTRUCTIONS TO VISIBILITY.


SDZ001>005-009-010-012>017-291600-
NORTHWEST AND NORTH CENTRAL SOUTH DAKOTA

CITY           SKY/WX    TMP DP  RH WIND       PRES   REMARKS
BUFFALO          N/A     47  42  83 N16       30.18R
FAITH            N/A     47  44  90 N24G31    30.17R
MOBRIDGE       CLOUDY    52  47  83 N24       30.12R
$$

SDZ012>016-024>037-041>051-057-063-072>074-291600-
SOUTHWEST AND SOUTH CENTRAL SOUTH DAKOTA

CITY           SKY/WX    TMP DP  RH WIND       PRES   REMARKS
RAPID CTY ARPT LGT RAIN  47  46  97 N26G33    30.19R FOG
PIERRE         RAIN      52  51  97 N29G37    30.05R FOG
CUSTER         CLOUDY    47  43  86 N8        30.20R
ELLSWORTH AFB  LGT RAIN  47  47 100 N20       30.20
PHILIP         LGT RAIN  51  49  92 N30G36    30.12R
PINE RIDGE     CLOUDY    53  49  86 N21G30    30.14R
SPEARFISH      LGT RAIN  41  41 100 N10       30.27R VSB 1/2
WINNER         CLOUDY    60  55  83 N21       30.00R
$$

SDZ004>011-016>023-039-040-291600-
NORTHEAST SOUTH DAKOTA

CITY           SKY/WX    TMP DP  RH WIND       PRES   REMARKS
ABERDEEN       LGT RAIN  51  48  89 N23G31    30.06R
WATERTOWN      CLOUDY    53  50  89 N22G29    29.98R
BROOKINGS      CLOUDY    61  57  88 N14       29.93R
SISSETON         N/A     49  49 100 N23       30.02R
$$

SDZ017-020-022-023-036>040-048>070-291600-
SOUTHEAST SOUTH DAKOTA

CITY           SKY/WX    TMP DP  RH WIND       PRES   REMARKS
SIOUX FALLS    LGT RAIN  65  62  90 CALM      29.90R
HURON            N/A    N/A N/A N/A MISG      29.96R
CHAMBERLAIN    HVY RAIN  58  57  97 N28G35    29.98R
MITCHELL       LGT RAIN  64  62  93 N15       29.92R FOG
YANKTON        CLOUDY    64  61  88 W9        29.89F
$$

ABBREVIATIONS USED IN REMARKS
   TC - TEMPERATURE IN CELSIUS
  WCI - WIND CHILL INDEX
   HX - HEAT INDEX
  VSB - VISIBILITY



USA.gov is the U.S. government's official web portal to all federal, state and local government web resources and services.